Regional Weather Roundup
Issued by NWS

Home | Current Version | Previous Version | Graphics & Text | Print | Product List | Glossary On
Versions: 1 2 3 4 5 6 7 8 9 10 11 12 13 14 15 16 17 18 19 20 21 22 23 24 25 26 27 28 29 30 31 32 33 34 35 36 37 38 39 40 41 42 43 44 45 46 47 48 49 50
000
ASUS45 KSLC 141010
RWRUT

UTAH REGIONAL WEATHER ROUNDUP
NATIONAL WEATHER SERVICE SALT LAKE CITY UT
300 AM MST SUN FEB 14 2016

UTZ001>011-023>025-141100-

NORTHERN UTAH

CITY           SKY/WX    TMP DP  RH WIND       PRES   REMARKS
BRIGHAM CITY   CLOUDY    27  26  94 CALM      30.26F VSB 1/4
HILL AFB       FOG       26  25  96 E3        30.22F VSB 1/4
LOGAN          FOG       26  24  92 CALM      30.22F VSB 1/4
OGDEN          FOG       27  27 100 CALM      30.23F VSB 1/4
PROVO AIRPORT    N/A    N/A N/A N/A CALM      30.24F VSB 3/4
SALT LAKE CITY FOG       29  28  96 SE5       30.23F VSB 1/4 WCI  24
VERNAL         CLOUDY    20  17  88 SW3       30.17F
WENDOVER       CLOUDY    27  25  93 NE3       30.24S VSB 1/2
WEST JORDAN    CLOUDY    27  27 100 CALM      30.22F

$$

UTZ012>022-026-027-141100-

SOUTHERN/CENTRAL UTAH

CITY           SKY/WX    TMP DP  RH WIND       PRES   REMARKS
BLANDING       PTCLDY    32  21  65 CALM      30.24F
BRYCE CANYON   MOCLDY    18  10  71 VRB3      30.27F
CEDAR CITY     MOCLDY    20  16  84 CALM      30.26S
DELTA          CLOUDY    11   9  92 E5        30.26F VSB<1/4 WCI   3
HANKSVILLE     MOCLDY    30  30 100 CALM      30.22F
MILFORD        FOG        6   3  87 S6        30.25F VSB 1/2 WCI  -4
MOAB/CYNLANDS  MOCLDY    32  30  92 W5        30.18F WCI  27
PRICE          MOCLDY    27  20  75 N6        30.17F WCI  20
ST GEORGE      PTSUNNY   41  21  45 SE9       30.20S
KANAB          CLEAR     32  25  74 E7        30.24F WCI  26

$$

REGIONAL REPORTS     COLORADO/ARIZONA

CITY           SKY/WX    TMP DP  RH WIND       PRES   REMARKS
CRAIG, CO      CLOUDY     5   0  79 CALM      30.18F
GRAND JUNCTION CLOUDY    28  25  88 E3        30.19F
RIFLE          CLOUDY    21  16  81 S3        30.20F
MONTROSE       CLOUDY    27  21  78 S6        30.21F WCI  20
CORTEZ         CLOUDY    24  19  81 NE9       30.18F WCI  14
PAGE, AZ       CLEAR     42  32  67 W3        30.19R
GRAND CANYON   PTCLDY    25  19  78 CALM      30.24S
KINGMAN        CLEAR     43  24  47 SE9       30.14F
FLAGSTAFF      PTCLDY    24  16  71 CALM      30.22F

$$

REGIONAL REPORTS    NEVADA/IDAHO/WYOMING

CITY           SKY/WX    TMP DP  RH WIND       PRES   REMARKS
LAS VEGAS, NV  CLEAR     53  21  28 CALM      30.11S
ELY            MOCLDY    18  11  74 S13       30.27F WCI   5
ELKO           CLOUDY    27  24  89 CALM      30.23F
POCATELLO, ID  CLOUDY    38  31  76 SW16G25   30.16S WCI  29
BURLEY         LGT RAIN  39  33  79 W10G18    30.19R WCI  32
EVANSTON, WY   CLOUDY    28  20  71 SW18      30.15F WCI  15
ROCK SPRINGS   CLOUDY    30  19  63 W29G37    30.09F WCI  15

$$



USA.gov is the U.S. government's official web portal to all federal, state and local government web resources and services.